• MPC Preparation (Info)

  • MPEC 2016-F08 : 2016 EE158

    The following Minor Planet Electronic Circular may be linked-to from your own Web pages, but must not otherwise be redistributed electronically.

    A form allowing access to any MPEC is at the bottom of this page.


    Read MPEC 2016-F07 Read MPEC 2016-F09


    M.P.E.C. 2016-F08                                Issued 2016 Mar. 16, 16:49 UT
    
         The Minor Planet Electronic Circulars contain information on unusual
             minor planets and routine data on comets.  They are published
        on behalf of Division F of the International Astronomical Union by the
              Minor Planet Center, Smithsonian Astrophysical Observatory,
                              Cambridge, MA 02138, U.S.A.
    
                 Prepared using the Tamkin Foundation Computer Network
    
                                  MPC@CFA.HARVARD.EDU
                URL https://www.minorplanetcenter.net/    ISSN 1523-6714
    
                                      2016 EE158
    
    Observations:
         K16EF8E* C2016 03 13.45215 12 49 42.088-07 34 23.81         22.1 wLEF008F51
         K16EF8E  C2016 03 13.46719 12 49 43.161-07 34 20.23         22.1 wLEF008F51
         K16EF8E  C2016 03 13.48227 12 49 44.186-07 34 16.19         22.2 wLEF008F51
         K16EF8E |C2016 03 15.28560 12 52 17.55 -07 25 16.9          21.7 VuEF008807
         K16EF8E |C2016 03 15.29218 12 52 18.02 -07 25 14.6          21.8 VuEF008807
         K16EF8E |C2016 03 15.29878 12 52 18.48 -07 25 12.9          21.8 VuEF008807
         K16EF8E KC2016 03 15.31118 12 52 21.02 -07 25 48.8          22.1 RoEF008291
         K16EF8E KC2016 03 15.31694 12 52 21.43 -07 25 46.9          22.1 RoEF008291
         K16EF8E KC2016 03 15.32273 12 52 21.83 -07 25 45.8          22.3 RoEF008291
         K16EF8E _C2016 03 15.52166112 52 37.899-07 24 35.77         21.7 RtEF008568
         K16EF8E _C2016 03 15.52293212 52 37.990-07 24 35.46         21.5 RtEF008568
         K16EF8E KC2016 03 16.26179 12 53 44.31 -07 20 38.3                oEF008291
         K16EF8E KC2016 03 16.26757 12 53 44.79 -07 20 36.1                oEF008291
         K16EF8E KC2016 03 16.27334 12 53 45.19 -07 20 34.4                oEF008291
    
    Observer details:
    291 LPL/Spacewatch II.  Observer A. F. Tubbiolo.  1.8-m f/2.7 reflector + CCD.
    568 Mauna Kea.  Observers R. J. Wainscoat, L. Wells.  Measurers M. Micheli,
        R. J. Wainscoat.  3.6-m Canada-France-Hawaii Telescope + CCD.
    807 Cerro Tololo.  Observers T. Linder, R. Holmes.  0.61-m f/6.5 astrograph
        + CCD.
    F51 Pan-STARRS 1, Haleakala.  Observers B. Gibson, T. Goggia, N. Primak,
        A. Schultz, M. Willman.  Measurers K. Chambers, S. Chastel, L. Denneau,
        H. Flewelling, M. Huber, E. Lilly, E. Magnier, R. Wainscoat, C. Waters,
        R. Weryk.  1.8-m Ritchey-Chretien + CCD.
    
    Orbital elements:
    2016 EE158                                               Earth MOID = 0.0984 AU
    Epoch 2016 Jan. 13.0 TT = JDT 2457400.5                 MPC
    M 300.62753              (2000.0)            P               Q
    n   0.49982152     Peri.   46.24372     -0.63989761     +0.76845016
    a   1.5725076      Node   183.97808     -0.72030861     -0.60157382
    e   0.3009342      Incl.    3.24396     -0.26774347     -0.21815887
    P   1.97           H   23.9           G   0.15           U   7
    Residuals in seconds of arc
    160313 F51  0.1-  0.0     160315 807  0.3-  0.4-    160315 568  0.2-  0.1+
    160313 F51  0.2+  0.1-    160315 291  0.3+  0.1+    160316 291  0.2-  0.1-
    160313 F51  0.1-  0.2+    160315 291  0.2+  0.3+    160316 291  0.4+  0.2+
    160315 807  0.0   0.2-    160315 291  0.1-  0.4-    160316 291  0.1-  0.0
    160315 807  0.1-  0.0     160315 568  0.2-  0.2+
    
    Ephemeris:
    2016 EE158               a,e,i = 1.57, 0.30, 3                   q = 1.0993
    Date    TT    R. A. (2000) Decl.     Delta      r     Elong.  Phase     V
    2016 02 15    12 12 54.8 -06 44 32   0.3996  1.3176   139.6    29.1    23.8
    ...
    2016 03 01    12 32 54.2 -07 48 00   0.2981  1.2574   149.8    23.4    22.9
    ...
    2016 03 09    12 43 33.6 -07 47 34   0.2529  1.2274   155.4    19.7    22.3
    ...
    2016 03 15    12 51 53.3 -07 26 59   0.2232  1.2063   159.7    16.6    21.9
    2016 03 16    12 53 20.0 -07 21 42   0.2186  1.2030   160.4    16.1    21.9
    2016 03 17    12 54 47.9 -07 15 52   0.2141  1.1996   161.1    15.5    21.8
    ...
    2016 03 23    13 04 07.8 -06 28 40   0.1889  1.1804   165.3    12.4    21.4
    ...
    2016 03 31    13 18 31.9 -04 51 08   0.1603  1.1572   170.0     8.6    20.8
    ...
    2016 04 15    13 55 04.0 -00 03 40   0.1220  1.1232   168.9     9.9    20.2
    
    A. U. Tomatic                (C) Copyright 2016 MPC           M.P.E.C. 2016-F08
    

    Read MPEC 2016-F07 Read MPEC 2016-F09


    MPEC number:

    Enter an MPEC number in one of the following forms:

    • 1997-B01 (the full form)
    • J97B01 (the packed version of the full form)
    • B01 (the abbreviated form)